User: anonymous
Location: Melbourne
(37.8170°S, 144.9670°E)
Time: 03:52:35
(UTC+10:00)
Language:

Cosmos 1656 Rocket - Orbit

View from above orbital plane
View from above orbital plane
View from above satellite
View from above satellite

Ground track
Ground track

The orbit data is extracted from the following two-line orbital elements,

1 15772U 85042D   14261.54542385  .00000110  00000-0  72099-4 0  4685
2 15772 071.1073 291.0758 0034577 165.2672 307.3094 14.21031110519005
Epoch (UTC): 18 September 2014 13:05:24
Eccentricity: 0.0034577
inclination: 71.1073°
perigee height: 797 km
apogee height: 847 km
right ascension of ascending node: 291.0758°
argument of perigee: 165.2672°
revolutions per day: 14.21031110
mean anomaly at epoch: 307.3094°
orbit number at epoch: 51900

The dashed part of the orbit path shows where the satellite is in the earth's shadow,  

DLR